User: anonymous   Login
Location: Melbourne
(37.8170°S, 144.9670°E)
Time: 17:24:53
(UTC+10:00)
Language:

Aureole 2 Rocket - Orbit

View from above orbital plane
View from above orbital plane
View from above satellite
View from above satellite

Ground track
Ground track

The orbit data is extracted from the following two-line orbital elements,

1  7004U 73107B   17145.46754137 +.00012865 +00000-0 +19338-3 0  9993
2  7004 073.9334 112.5796 0177743 347.4813 012.2002 15.38723912233738
Epoch (UTC): 25 May 2017 11:13:15
Eccentricity: 0.0177743
inclination: 73.9334°
perigee height: 328 km
apogee height: 571 km
right ascension of ascending node: 112.5796°
argument of perigee: 347.4813°
revolutions per day: 15.38723912
mean anomaly at epoch: 12.2002°
orbit number at epoch: 23373

The dashed part of the orbit path shows where the satellite is in the earth's shadow,  

DLR